Theta_e
339 339 338 336 338 339 339 341 340 339 338 333 339 337 331 328 326 325 322 319 315 311 309 307 304 301 300 300 300 301 303 303 304 305 304 304 306 307 307 307 307 307 306
340 341 340 339 340 341 340 338 335 339 336 337 334 331 330 327 324 322 319 314 310 308 305 302 300 299 299 301 303 304 303 303 303 305 305 305 306 307 307 307 307 307 304
339 340 339 337 338 338 337 338 337 338 337 331 332 330 326 321 322 318 314 310 308 304 301 300 298 300 302 303 303 303 303 303 302 302 305 304 304 304 307 305 305 306 302
336 336 333 334 335 336 337 336 336 334 334 332 328 323 324 320 317 318 310 306 303 301 299 300 302 303 303 303 302 302 303 303 304 303 302 302 302 303 303 304 308 306 303
331 337 338 334 333 333 334 333 332 326 328 327 325 322 319 317 319 310 306 303 300 298 300 302 303 301 300 301 302 303 304 305 306 306 304 304 301 304 303 303 304 305 305
333 334 333 334 333 332 330 333 321 326 326 324 321 318 318 318 311 307 303 300 298 300 302 302 298 300 301 302 303 304 305 306 306 306 305 304 303 304 304 302 302 302 304
333 332 331 330 329 323 323 326 321 320 323 320 318 318 316 312 306 302 301 298 300 302 301 295 296 297 299 301 302 303 305 306 306 305 304 304 304 303 303 304 304 302 302
334 332 327 325 324 323 322 326 325 324 322 319 317 310 309 304 300 301 299 299 301 299 295 293 293 293 295 297 300 302 303 303 303 303 303 302 303 303 303 303 302 304 305
331 328 323 325 326 324 322 323 324 324 319 309 308 307 303 299 301 300 299 301 297 295 293 292 292 292 292 293 293 295 299 301 302 302 302 302 303 303 303 304 303 302 303
322 322 324 323 325 324 323 323 322 320 316 308 304 302 298 300 301 298 299 295 294 293 292 292 291 292 292 292 293 293 295 300 302 303 303 303 304 304 304 302 301 301 299
322 322 322 322 322 322 321 320 313 308 304 300 297 298 300 299 298 298 294 293 293 292 292 291 291 291 291 292 292 292 293 298 301 301 303 302 302 303 304 303 303 301 301
321 321 321 321 321 321 317 309 302 299 297 297 298 299 298 299 295 293 292 293 292 292 291 291 291 290 291 291 291 291 292 294 297 300 301 302 303 303 304 304 305 304 302
317 319 317 318 313 309 302 298 297 296 297 297 297 298 296 294 293 292 292 291 291 291 291 290 290 290 291 291 291 291 291 292 294 297 300 300 300 301 303 304 305 304 304
316 312 315 310 304 300 297 296 296 296 297 298 297 295 294 293 293 292 291 291 291 291 290 290 290 291 291 291 290 290 290 291 292 295 297 298 300 301 302 302 303 305 306
315 311 306 301 300 297 295 295 296 297 297 296 295 294 293 293 292 291 290 290 290 290 290 290 291 290 290 290 290 290 290 290 291 294 296 298 300 300 299 300 302 304 304
310 303 302 301 297 295 295 296 296 295 295 294 294 294 293 292 291 291 290 290 290 290 290 290 290 289 289 289 290 290 289 290 290 291 293 297 298 298 298 299 301 302 303
306 302 300 297 296 295 295 294 294 294 294 294 293 293 292 291 290 290 290 290 290 290 290 289 289 289 288 289 289 289 289 289 289 290 294 295 297 297 296 297 299 302 303
304 303 301 299 297 295 294 294 294 294 293 293 292 292 291 290 290 290 290 290 290 290 289 289 288 288 288 289 288 288 288 289 289 289 292 294 296 296 296 296 297 298 300
304 304 303 300 298 295 294 294 294 294 293 292 291 291 290 290 290 290 290 290 289 289 288 288 288 288 288 288 288 288 288 289 289 289 289 293 295 295 295 295 295 297 298
306 305 304 301 296 294 294 294 294 293 293 292 291 291 290 290 290 290 289 289 288 288 288 288 287 288 288 287 287 288 288 288 288 288 289 291 294 294 294 294 294 295 297
305 305 304 299 295 294 294 294 293 293 293 292 292 291 290 290 289 289 288 288 288 288 288 287 287 287 287 287 287 287 287 288 288 288 288 289 291 293 294 293 293 294 296
303 302 300 297 293 294 294 294 294 293 293 292 291 290 290 290 289 288 288 288 287 287 287 287 287 287 287 287 287 287 287 287 288 288 288 288 290 291 292 293 293 292 296
301 300 298 294 293 293 294 294 293 293 292 291 291 290 290 289 289 288 288 287 287 287 287 287 287 287 286 287 287 286 286 287 287 287 288 288 289 291 291 292 292 291 294
298 295 293 293 293 294 294 294 293 293 292 292 291 290 290 289 288 288 287 287 287 287 287 287 287 286 286 286 286 286 286 286 286 287 287 288 288 289 291 291 291 290 292
292 293 293 294 294 294 294 293 293 292 292 292 291 290 289 289 288 287 287 287 287 287 286 287 286 286 285 285 285 286 286 286 286 287 287 287 288 288 290 290 291 291 291
296 296 296 296 295 294 294 293 293 292 292 291 291 290 289 289 288 287 287 286 286 286 286 286 286 286 285 285 285 285 286 286 286 287 287 286 287 287 287 288 289 290 290
Wind_Speed
42 38 38 37 36 39 37 34 32 34 31 22 28 23 19 12 10 7 5 3 1 1 6 8 10 11 11 12 13 13 12 12 14 19 18 18 21 21 22 21 20 20 21
36 35 41 39 37 38 40 37 35 39 31 33 29 21 16 13 11 6 4 3 2 5 7 8 9 10 11 12 12 13 13 14 17 21 20 19 22 21 23 22 23 21 24
33 39 39 36 34 34 35 40 40 38 36 31 24 20 19 15 11 8 4 2 3 4 7 8 9 10 11 11 13 14 15 16 16 17 20 20 21 22 24 23 23 22 21
32 28 29 33 34 32 30 37 43 42 36 27 21 23 18 14 11 7 3 3 4 6 8 10 11 12 13 14 16 17 18 19 19 17 18 20 21 25 26 26 24 26 25
29 30 33 35 35 32 32 39 37 37 33 28 25 22 19 14 10 6 3 4 5 9 10 11 13 14 14 16 17 20 21 22 20 20 19 22 22 28 29 29 28 30 26
32 31 29 31 32 38 41 47 39 33 31 27 23 20 16 12 8 6 5 6 9 9 10 12 12 15 16 17 17 19 21 21 18 20 21 22 25 26 29 28 27 28 27
31 29 28 27 31 38 44 36 36 34 31 26 22 16 16 13 9 9 8 8 7 10 11 12 13 15 16 16 18 19 20 18 17 19 21 20 22 23 26 28 26 27 28
27 27 30 33 33 41 44 38 31 27 23 22 21 19 15 17 13 10 7 7 9 11 12 13 14 15 17 19 20 21 19 19 18 19 19 19 19 21 24 25 27 27 27
31 34 36 47 48 44 36 30 27 25 25 24 20 17 16 18 15 10 6 8 10 11 12 13 13 16 19 21 22 25 23 24 24 23 18 18 20 19 20 23 25 27 28
35 39 47 49 51 44 37 39 32 29 27 24 23 21 18 19 14 9 8 11 10 11 11 13 15 18 20 22 25 25 25 24 23 22 20 20 19 19 20 23 23 25 25
45 48 46 42 40 38 36 36 33 31 30 28 27 24 21 17 15 11 11 10 11 9 10 13 16 19 20 23 24 25 23 24 25 25 27 24 23 21 23 21 19 21 22
52 51 46 41 39 37 35 34 33 32 31 32 30 27 22 18 15 12 11 11 10 10 13 15 17 18 20 22 23 22 24 25 25 28 31 29 26 24 22 19 19 21 15
48 49 47 41 40 38 36 35 33 32 33 32 29 28 24 19 16 13 11 11 12 13 15 17 17 17 19 19 21 25 27 29 29 30 32 30 26 23 20 20 22 21 18
42 44 44 41 39 36 33 32 33 31 31 31 29 26 22 19 16 13 12 12 14 15 15 15 16 18 18 23 25 26 29 31 32 30 30 30 25 23 23 23 24 22 21
42 43 42 41 38 37 34 32 30 28 26 29 26 22 21 19 17 14 13 14 14 12 16 16 16 19 21 24 24 28 30 30 32 32 29 32 28 24 25 25 25 24 24
45 43 41 39 38 38 38 37 31 30 26 24 22 21 21 20 17 16 15 15 13 14 16 18 22 23 24 23 27 28 27 31 32 31 28 32 29 28 29 27 25 26 24
43 43 41 41 40 41 40 40 40 31 26 22 20 19 19 19 17 17 15 14 13 17 19 23 24 24 23 26 27 26 26 29 29 30 31 32 30 27 29 29 28 27 25
40 39 38 36 34 34 35 35 35 33 30 25 18 19 17 17 17 16 14 14 17 20 22 23 24 23 23 25 25 25 25 28 30 31 30 31 31 29 30 29 29 28 27
37 35 34 33 31 31 33 31 29 27 26 26 22 19 16 17 16 15 15 18 19 20 21 22 23 23 24 22 23 24 22 28 31 32 30 29 32 31 29 29 28 27 27
31 31 30 32 31 30 31 30 28 26 24 22 20 19 16 15 16 17 18 19 18 20 21 23 22 23 22 21 23 23 23 27 30 32 32 28 31 31 30 30 28 29 28
29 28 29 30 30 30 29 28 26 24 22 20 18 16 14 15 17 18 17 18 18 20 21 21 21 21 21 22 23 24 24 25 28 31 32 30 28 29 30 29 29 28 27
31 32 31 29 29 28 27 25 23 22 20 19 22 19 14 16 17 16 16 18 18 19 20 20 20 21 22 22 23 24 25 25 28 30 31 30 27 26 27 30 30 29 28
30 30 28 29 29 29 26 23 21 20 19 19 19 17 13 14 15 15 16 17 17 18 19 19 19 19 20 21 21 24 25 26 27 29 29 30 27 27 26 29 30 29 29
27 30 32 32 31 27 23 21 20 19 19 17 16 16 14 13 13 14 15 16 16 18 17 17 18 18 18 19 20 22 23 23 26 26 28 27 27 27 27 26 27 28 26
32 33 32 30 28 25 26 23 21 19 17 16 15 14 13 12 12 13 13 14 16 15 16 17 16 16 16 16 18 19 20 22 24 24 28 26 26 28 28 27 27 27 28
32 31 29 27 27 26 25 23 20 18 17 16 15 13 12 11 11 11 12 13 14 14 15 15 15 14 15 16 17 17 19 21 22 23 27 27 27 29 29 29 29 28 27
Wind_Direction
193 194 202 209 206 206 209 199 197 196 197 195 188 189 179 158 158 171 157 200 248 357 2 355 353 348 352 351 348 345 341 329 312 325 325 329 341 340 340 340 339 338 339
194 194 194 198 205 201 202 202 201 195 197 178 179 171 163 160 161 156 156 162 102 11 17 7 357 1 3 0 357 349 347 339 329 331 333 337 343 342 340 339 340 345 342
184 181 188 199 204 207 215 210 201 187 173 168 164 166 154 156 154 132 117 107 43 40 21 13 20 21 15 8 5 355 346 348 342 332 332 341 340 338 343 344 342 350 347
186 190 191 205 210 205 202 193 181 171 165 158 159 158 151 145 124 96 146 107 72 38 36 32 31 28 20 13 5 357 353 355 350 345 337 341 342 341 348 348 350 354 354
178 176 181 190 193 197 199 182 181 165 148 153 155 150 143 130 108 123 118 101 62 55 47 41 35 23 18 18 9 5 3 3 356 351 347 343 342 349 351 350 349 352 355
178 180 181 184 183 190 184 183 165 151 142 145 146 131 128 130 129 131 145 89 69 62 56 48 37 34 28 22 16 13 9 5 356 352 345 340 342 350 349 348 345 346 349
184 183 190 197 185 174 157 149 144 141 137 138 135 136 133 128 136 134 107 83 78 68 58 47 39 31 33 26 22 17 17 10 356 349 343 340 342 347 345 348 347 337 334
172 172 172 166 155 153 149 141 141 132 133 139 134 139 130 128 123 111 98 88 80 67 56 46 39 28 29 25 22 19 15 8 356 346 343 339 338 344 341 342 339 337 338
168 165 156 146 147 140 137 131 142 143 142 137 132 133 144 130 120 112 99 92 75 65 51 45 37 30 25 22 17 20 14 4 360 354 349 348 345 342 340 340 338 341 342
155 153 153 153 144 145 147 149 153 147 140 144 141 140 138 125 122 114 103 80 71 60 48 43 37 32 24 20 19 15 12 5 4 5 359 349 348 353 355 351 346 346 342
142 140 139 140 142 145 146 145 143 142 142 141 138 134 130 124 124 110 94 88 75 67 59 46 36 32 21 19 18 15 8 10 12 8 10 6 359 359 358 357 354 351 341
149 144 147 149 148 144 142 139 143 139 140 138 136 130 127 123 110 101 95 94 87 72 62 49 39 31 24 22 20 15 15 18 12 12 11 10 6 2 2 2 5 6 357
147 145 144 140 137 136 138 138 137 140 137 132 131 129 125 118 107 96 97 89 77 65 55 49 42 35 29 27 26 23 22 21 18 12 11 9 7 3 357 1 14 13 17
143 139 134 134 132 133 135 137 136 136 133 129 130 126 122 115 107 101 90 82 70 60 56 53 43 39 33 34 31 28 27 23 20 13 9 6 6 7 10 10 17 20 16
142 136 134 134 134 135 132 132 131 127 128 131 127 125 121 112 103 96 88 77 68 62 61 54 50 42 38 36 31 29 26 23 19 16 10 10 10 14 16 18 24 26 22
142 140 136 135 135 131 129 125 120 118 119 117 117 119 114 101 97 89 79 74 70 65 63 54 48 41 36 30 30 27 22 22 20 16 11 13 11 18 16 16 24 25 23
141 140 141 140 137 135 133 129 123 119 113 109 110 109 103 101 97 88 79 73 69 67 60 55 49 40 35 34 29 24 21 20 19 18 17 14 12 19 19 18 22 26 26
146 146 145 140 137 137 138 131 128 126 123 118 110 102 100 100 95 87 83 80 70 64 60 55 51 43 37 34 28 26 23 20 21 21 18 16 16 20 19 20 21 22 23
150 148 145 141 140 142 137 133 132 131 128 125 118 106 100 96 94 92 84 76 70 64 60 54 50 43 38 33 29 27 22 23 22 21 19 14 20 20 22 20 19 24 27
152 152 150 145 142 142 139 137 136 133 126 121 118 112 109 103 94 85 80 74 68 65 59 53 47 42 37 35 33 28 25 24 23 22 21 16 21 19 22 21 20 22 27
152 154 152 148 144 141 140 137 133 129 125 122 118 115 109 101 94 87 83 78 69 64 60 55 49 45 40 37 32 31 28 23 23 23 23 20 15 15 22 25 25 27 28
151 152 155 151 146 141 138 135 132 127 124 125 118 112 109 99 91 87 82 75 68 63 59 53 46 41 39 38 36 33 29 24 24 25 26 24 16 15 18 25 27 25 29
156 155 156 151 146 143 139 136 131 130 129 123 121 115 110 102 94 87 80 74 68 63 59 54 48 44 39 39 37 34 30 25 25 24 27 26 21 20 18 22 25 26 26
158 156 153 150 146 146 144 137 137 136 130 127 127 125 119 107 95 85 80 75 68 62 56 54 49 44 40 39 38 35 30 26 29 28 32 28 24 25 25 21 22 25 23
152 151 150 149 150 150 147 142 140 136 134 135 130 131 128 116 99 87 80 74 67 61 55 53 50 45 42 40 38 36 31 28 31 31 37 34 30 33 31 28 28 26 28
152 153 152 154 153 151 149 144 141 142 138 135 139 137 132 117 100 88 79 73 68 60 55 53 50 47 43 41 37 35 34 33 32 33 39 36 36 35 36 33 34 31 29